Home > Weather > Darlington > Past weeks

Flag for United Kingdom Past Weather in Darlington, England, United Kingdom — Yesterday and Last 2 Weeks

Now
48 °F

Fog.


Feels Like: 43 °F
Forecast: 47 / 58 °F
Wind: 12 mph from North

Location: Leeming

Current Time: May 26, 2016 at 4:03:01 AM

Latest Report: May 26, 2016 at 2:50 AM


Visibility: 2 mi

Pressure: 29.98 "Hg

Humidity: 100%

Dew Point: 48 °F

Location of DarlingtonLocation

Past Weather in Darlington — Graph

°F

Darlington Temperature Yesterday

Maximum temperature yesterday: 50 °F (at 10:50 AM)
Minimum temperature yesterday: 46 °F (at 12:50 AM)
Average temperature yesterday: 48 °F

High & Low Weather Summary for the Past Weeks

 TemperatureHumidityPressure
High66 °F (May 22, 3:50 PM)100% (May 19, 12:50 AM)30.24 "Hg (May 19, 12:50 AM)
Low36 °F (May 15, 2:50 AM)38% (May 14, 12:50 PM)29.56 "Hg (May 18, 4:50 AM)
Average52 °F75%29.92 "Hg
* Reported May 11 2:50 AM — May 26 2:50 AM, Darlington, Weather by CustomWeather, © 2016

Note: Actual official high and low records may vary slightly from our data, if they occured in-between our weather recording intervals... More about our weather records

Advertising

Darlington Weather History for the Previous 24 Hours

Scroll right to see more
 ConditionsComfort  
Time TempWeatherWind HumidityBarometerVisibility
2:50 AM
Thu, May 26
48 °FFog.12 mph100%29.98 "Hg2 mi
1:50 AM48 °FFog.12 mph100%29.98 "Hg2 mi
12:50 AM48 °FFog.13 mph94%30.01 "Hg3 mi
11:50 PM
Wed, May 25
48 °FRain. Low clouds.13 mph94%30.01 "Hg2 mi
10:50 PM48 °FRain. Passing clouds.13 mph94%30.01 "Hg4 mi
9:50 PM46 °FDrizzle. Low clouds.13 mph100%30.04 "Hg2 mi
8:50 PM48 °FDrizzle. Partly sunny.13 mph94%30.04 "Hg3 mi
7:50 PM48 °FLight rain. Low clouds.13 mph94%30.04 "HgN/A
6:50 PM48 °FRain. Low clouds.13 mph94%30.04 "Hg5 mi
5:50 PM48 °FLight rain. Overcast.13 mph87%30.07 "Hg3 mi
4:50 PM48 °FLight rain. More clouds than sun.14 mph87%30.07 "Hg4 mi
3:50 PM48 °FRain. Overcast.16 mph87%30.07 "HgN/A
2:50 PM48 °FRain. Partly sunny.15 mph87%30.09 "Hg4 mi
1:50 PM48 °FRain. Overcast.16 mph82%30.09 "HgN/A
12:50 PM48 °FLight rain. Overcast.14 mph82%30.09 "HgN/A
11:50 AM50 °FBroken clouds.15 mph67%30.09 "HgN/A
10:50 AM50 °FBroken clouds.16 mph67%30.12 "HgN/A
9:50 AM48 °FOvercast.15 mph71%30.12 "HgN/A
8:50 AM48 °FPartly sunny.14 mph71%30.12 "HgN/A
7:50 AM48 °FPartly sunny.16 mph76%30.12 "HgN/A
6:50 AM48 °FPartly sunny.15 mph76%30.12 "HgN/A
5:50 AM46 °FOvercast.10 mph82%30.12 "HgN/A
4:50 AM46 °FOvercast.10 mph76%30.15 "HgN/A
Weather by CustomWeather, © 2016

See weather overviewHow to use our weather pages